Regional Weather Roundup
Issued by NWS

Home | Current Version | Previous Version | Text Only | Print | Product List | Glossary Off
Versions: 1 2 3 4 5 6 7 8 9 10 11 12 13 14 15 16 17 18 19 20 21 22 23 24 25 26 27 28 29 30 31 32 33 34 35 36 37 38 39 40 41 42 43 44 45 46 47 48 49 50

000
ASUS45 KSLC 030310
RWRUT

UTAH REGIONAL WEATHER ROUNDUP
NATIONAL WEATHER SERVICE SALT LAKE CITY UT
900 PM MDT THU JUL 02 2015

UTZ001>011-023>025-030400-

NORTHERN UTAH

CITY           SKY/WX    TMP DP  RH WIND       PRES   REMARKS
BRIGHAM CITY   PTCLDY    90  47  22 CALM      29.97S
HILL AFB       PTCLDY    86  47  25 E6        30.02S
LOGAN          CLEAR     84  51  31 SE3       29.99R
OGDEN          PTCLDY    88  44  21 SW3       29.98S
PROVO AIRPORT  PTCLDY    82  57  42 NW3       29.99S
SALT LAKE CITY MOCLDY    89  53  29 W7        29.96S
VERNAL         PTCLDY    84  45  25 W6        30.01S
WENDOVER       MOCLDY    90  45  20 NW12      29.99S
HEBER CITY     MOCLDY    73  43  33 E5        30.09S
WEST JORDAN    CLEAR     86  43  22 W8        30.01S

$$

UTZ012>022-026-027-030400-

SOUTHERN/CENTRAL UTAH

CITY           SKY/WX    TMP DP  RH WIND       PRES   REMARKS
BLANDING       PTCLDY    80  53  39 NE7       30.15R
BRYCE CANYON   CLOUDY    64  52  64 W7        30.29S
CEDAR CITY     CLOUDY    74  50  42 NW6       30.14R
DELTA          PTCLDY    91  32  12 N12       30.01R
HANKSVILLE     PTCLDY    88  32  13 E5        29.95R
MILFORD        CLOUDY    80  56  43 W8        30.07R
MOAB/CYNLANDS  CLEAR     90  45  21 CALM      29.92S
PRICE          CLEAR     87  30  13 NW12      30.08R
ST GEORGE      MOCLDY    90  57  33 SE6       29.90R
KANAB          CLOUDY    77  55  47 S5        30.12R

$$

REGIONAL REPORTS     COLORADO/ARIZONA

CITY           SKY/WX    TMP DP  RH WIND       PRES   REMARKS
CRAIG, CO      MOCLDY    78  44  29 N9G18     30.15R
GRAND JUNCTION PTCLDY    87  46  24 CALM      29.96S
RIFLE          CLEAR     86  38  18 CALM      30.03S
MONTROSE       PTCLDY    82  51  34 S5        30.08R
CORTEZ         PTCLDY    71  57  61 E5        30.11R
PAGE, AZ       MOCLDY    90  48  23 NW9       29.97R
GRAND CANYON   CLOUDY    73  51  46 NW5       30.22R
KINGMAN        CLEAR     91  47  21 SW12      29.96R
FLAGSTAFF      MOCLDY    64  55  72 CALM      30.25R

$$

REGIONAL REPORTS    NEVADA/IDAHO/WYOMING

CITY           SKY/WX    TMP DP  RH WIND       PRES   REMARKS
LAS VEGAS, NV  PTCLDY   102  52  18 SE8       29.76R HX  99
ELY            CLOUDY    75  47  36 S8        30.22R
ELKO           CLOUDY    81  47  30 SW8       30.09F
POCATELLO, ID  PTCLDY    86  43  22 SW7       29.99S
BURLEY         CLEAR     83  57  41 S8        29.95F
EVANSTON, WY   PTCLDY    76  40  27 NW7       30.23R
ROCK SPRINGS   PTCLDY    70  44  39 E7        30.19R
KEMMERER       CLEAR    N/A N/A N/A NW7       30.25R

$$


USA.gov is the U.S. government's official web portal to all federal, state and local government web resources and services.